Skip Page Navigation
NASA JPL Caltech
NASA Logo - Jet Propulsion Laboratory + View the NASA Portal
+ Center for Near-Earth Object Studies
JPL Home Earth Solar System Stars & Galaxies Technology
JPL Solar System Dynamics
BODIES ORBITS EPHEMERIDES TOOLS PHYSICAL DATA DISCOVERY FAQ SITE MAP
JPL Small-Body Database Browser
Search: [ help ]  
8035 (1992 TB)
Classification: Apollo [NEO]          SPK-ID: 2008035
Ephemeris | Orbit Diagram | Orbital Elements | Mission Design | Physical Parameters | Discovery Circumstances | Close-Approach Data ]

[ hide orbit diagram ]

For accurate long-term ephemerides, please instead use our Horizons system.This orbit viewer was implemented using two-body methods, and hence should not be used for determining accurate long-term trajectories (over several years or decades) or planetary encounter circumstances.


[ revert to old Java-based viewer ]

Orbital Elements at Epoch 2459000.5 (2020-May-31.0) TDB
Reference: JPL 129 (heliocentric ecliptic J2000)
 Element Value Uncertainty (1-sigma)   Units 
e .4623070099824064 7.4464e-08  
a 1.342111420331345 3.6197e-09 au
q .7216439025347204 1.0025e-07 au
i 28.30359504976229 1.0618e-05 deg
node 185.6328401134648 9.7348e-06 deg
peri 6.069984084749598 1.241e-05 deg
M 79.4541615481741 1.51e-05 deg
tp 2458875.158342631533
(2020-Jan-26.65834263)
2.3835e-05 TDB
period 567.9123128785322
1.55
2.2975e-06
6.29e-09
d
yr
n .6339006776861317 2.5645e-09 deg/d
Q 1.96257893812797 5.2931e-09 au
  Orbit Determination Parameters
   # obs. used (total)      670  
   data-arc span      10157 days (27.81 yr)  
   first obs. used      1992-10-02  
   last obs. used      2020-07-24  
   planetary ephem.      DE431  
   SB-pert. ephem.      SB431-N16  
   condition code      0  
   norm. resid. RMS      .57946  
   source      ORB  
   producer      Otto Matic  
   solution date      2020-Jul-25 06:40:50  

Additional Information
 Earth MOID = .272823 au 
 Jupiter MOID = 2.99322 au 
 T_jup = 4.670 
[ show covariance matrix ]

Ephemeris | Orbit Diagram | Orbital Elements | Mission Design | Physical Parameters | Discovery Circumstances | Close-Approach Data ]

Physical Parameter Table
Parameter Symbol Value Units Sigma Reference Notes
absolute magnitude H 17.1   n/a MPO319186  

8035 (1992 TB)          Discovered 1992-Oct-02 by Spacewatch at Kitt Peak
Reference: DISCOVERY.DBLast Updated: 2003-08-29

[ show close-approach data ]
Ephemeris | Orbit Diagram | Orbital Elements | Mission Design | Physical Parameters | Discovery Circumstances | Close-Approach Data ]
ABOUT SSD CREDITS/AWARDS PRIVACY/COPYRIGHT GLOSSARY LINKS
FirstGov 2020-Aug-10 20:29 UT
(server date/time)  
NASA Home Page
Site Manager:   Ryan S. Park
Webmaster  Alan B. Chamberlin